Regional Weather Roundup
Issued by NWS

Home | Current Version | Previous Version | Graphics & Text | Print | Product List | Glossary On
Versions: 1 2 3 4 5 6 7 8 9 10 11 12 13 14 15 16 17 18 19 20 21 22 23 24 25 26 27 28 29 30 31 32 33 34 35 36 37 38 39 40 41 42 43 44 45 46 47 48 49 50
000
ASUS43 KFSD 021510
RWRSD

WEATHER ROUNDUP FOR SOUTH DAKOTA
NATIONAL WEATHER SERVICE SIOUX FALLS SD
1000 AM CDT TUE SEP 02 2014

NOTE: "FAIR" INDICATES FEW OR NO CLOUDS BELOW 12,000 FEET WITH NO
SIGNIFICANT WEATHER AND/OR OBSTRUCTIONS TO VISIBILITY.


SDZ001>005-009-010-012>017-021600-
NORTHWEST AND NORTH CENTRAL SOUTH DAKOTA

CITY           SKY/WX    TMP DP  RH WIND       PRES   REMARKS
BUFFALO          N/A     60  48  64 SW7       29.84S
FAITH            N/A     62  49  62 SW10      29.90F
MOBRIDGE       MOSUNNY   62  55  77 S6        29.86S
$$

SDZ012>016-024>037-041>051-057-063-072>074-021600-
SOUTHWEST AND SOUTH CENTRAL SOUTH DAKOTA

CITY           SKY/WX    TMP DP  RH WIND       PRES   REMARKS
RAPID CTY ARPT SUNNY     65  49  56 S7        29.95S
PIERRE         SUNNY     63  51  65 SW12      29.90F
CUSTER         SUNNY     59  37  44 SW8       30.06S
ELLSWORTH AFB  SUNNY     66  48  52 S12       29.94F
PHILIP         SUNNY     61  52  72 W7        29.94S
PINE RIDGE     SUNNY     60  51  72 CALM      30.00F
WINNER         FAIR      67  54  63 SW8       29.96S
$$

SDZ004>011-016>023-039-040-021600-
NORTHEAST SOUTH DAKOTA

CITY           SKY/WX    TMP DP  RH WIND       PRES   REMARKS
ABERDEEN       SUNNY     60  55  83 S6        29.88F
WATERTOWN      SUNNY     64  54  69 SW6       29.91S
SISSETON         N/A     69  53  56 W13       29.86S
$$

SDZ017-020-022-023-036>040-048>070-021600-
SOUTHEAST SOUTH DAKOTA

CITY           SKY/WX    TMP DP  RH WIND       PRES   REMARKS
SIOUX FALLS    MOSUNNY   66  58  75 CALM      29.95S
HURON          SUNNY     64  54  69 VRB3      29.92S
CHAMBERLAIN    SUNNY     61  53  75 W6        29.95S
MITCHELL       SUNNY     64  56  75 CALM      29.94F
YANKTON        SUNNY     64  55  72 NW3       29.97R
$$

ABBREVIATIONS USED IN REMARKS
   TC - TEMPERATURE IN CELSIUS
  WCI - WIND CHILL INDEX
   HX - HEAT INDEX
  VSB - VISIBILITY




USA.gov is the U.S. government's official web portal to all federal, state and local government web resources and services.